Location: Wildlife_Club
(35.6000°N, 81.4330°W)
Time: 20:15:00
(UTC-04:00)

Daily predictions for brighter satellites

Satellite Brightness Start Highest point End
(mag) Time Altitude Azimuth Time Altitude Azimuth Time Altitude Azimuth
Meteor 2-21 Rocket 4.4 19:03:58 10° S 19:10:01 69° E 19:16:02 10° NNE
SL-14 R/B 3.2 19:07:10 10° N 19:11:00 70° E 19:14:50 10° SSE
Cosmos 2366 rocket 4.1 19:05:56 10° SSE 19:11:58 54° E 19:17:58 10° NNE
SMAP 3.5 19:09:37 10° S 19:14:14 68° WSW 19:18:54 10° NNW
Cosmos 1242 Rocket 4.1 19:12:24 10° SSW 19:15:48 41° WNW 19:19:18 10° N
MTI 3.9 19:12:56 10° N 19:16:09 77° WNW 19:19:20 10° SSW
Cosmos 2221 4.0 19:16:29 10° SE 19:19:07 16° E 19:21:44 10° NE
METEOR-M 4.2 19:17:56 10° SSE 19:23:09 57° ENE 19:28:24 10° N
ISS -3.9 19:20:03 10° NW 19:23:19 74° NE 19:26:36 10° SE
SPOT 3 Rocket 3.7 19:19:49 10° SSE 19:24:48 51° ENE 19:29:50 10° N
Cosmos 1500 Rocket 4.3 19:21:24 10° NNE 19:25:14 30° ENE 19:29:02 10° SE
Ariane Rocket 4.5 19:20:26 10° S 19:25:14 43° W 19:30:05 10° NNW
SL-8 Rocket 4.1 19:20:49 10° S 19:26:58 83° W 19:33:13 10° N
Cosmos 1315 Rocket 4.1 19:28:15 10° NNE 19:31:17 20° ENE 19:34:20 10° ESE
COSMOS 2428 4.4 19:29:31 10° NNE 19:32:23 14° NE 19:34:16 12° ENE
Cosmos 921 Rocket 4.5 19:29:18 10° NNE 19:32:26 18° ENE 19:34:56 12° ESE
Cosmos 1833 4.2 19:31:02 10° S 19:36:39 62° ESE 19:42:14 10° NNE
Cosmos 2056 Rocket 3.4 19:32:11 10° NNW 19:37:31 75° ENE 19:42:43 10° SSE
Cosmos 2098 Rocket 4.4 19:36:31 10° SE 19:39:22 19° E 19:42:39 10° NE
NOAA 12 4.2 19:34:41 10° SSE 19:39:48 53° ENE 19:44:58 10° N
Meteor 2-1 Rocket 4.3 19:34:22 10° S 19:39:56 58° E 19:45:41 10° NNE
Cosmos 2360 Rocket 2.8 19:34:56 10° N 19:40:05 35° ENE 19:45:13 10° SE
Cosmos 2058 3.2 19:37:07 10° N 19:41:08 45° E 19:45:07 10° SSE
Cosmos 2219 4.4 19:37:46 10° SSE 19:41:57 21° E 19:45:35 12° ENE
COSMO-SKYMED 1 3.0 19:40:27 10° N 19:44:46 66° WNW 19:49:03 10° SSW
RESURS DK-1 3.5 19:42:09 10° N 19:45:33 24° ENE 19:47:05 19° E
Cosmos 2322 Rocket 2.3 19:40:39 10° NNW 19:46:17 80° WSW 19:51:53 10° SSE
Cosmos 2218 Rocket 4.4 19:40:51 10° SSW 19:46:57 68° W 19:53:05 10° N
Cosmos 1626 2.0 19:44:10 10° N 19:47:55 77° E 19:51:38 10° S
BREEZE-M DEB (TANK) 2.5 19:49:18 10° WSW 19:51:21 32° NNW 19:52:36 17° NNE
SL-8 R/B 3.8 19:47:42 10° WSW 19:52:31 77° NW 19:56:26 16° NE
Meteor 1-11 4.4 19:47:08 10° N 19:52:56 79° W 19:58:38 10° S
SAR-Lupe-3 4.5 19:50:01 10° NNE 19:53:34 61° ESE 19:57:06 10° S
SJ-6B 4.0 19:55:12 22° ENE 19:55:12 22° ENE 19:57:43 10° NNE
Cosmos 1452 Rocket 3.9 19:50:26 10° N 19:55:24 41° ENE 20:00:13 11° SE
USA 267 3.3 19:49:56 10° NE 19:56:24 60° SE 20:02:49 10° SSW
Centaur AC-112 4.0 19:52:30 10° WSW 19:59:27 26° SSW 20:01:27 16° SE
Atlas Centaur 2 2.6 19:56:04 10° WSW 20:00:52 50° S 20:04:35 22° ESE
Cosmos 1727 Rocket 4.0 19:55:45 10° N 20:02:08 88° WSW 20:08:28 10° S
DELTA 2 R/B (1) 3.9 19:57:18 10° WNW 20:02:48 57° N 20:05:56 25° ENE
Cosmos 2322 4.0 20:00:05 10° N 20:05:35 46° ENE 20:09:19 20° SE
ALOS 2.3 20:03:38 10° S 20:08:17 84° WSW 20:12:59 10° NNW
BREEZE M DEB (TANK) 4.4 20:08:21 10° NNW 20:09:28 11° N 20:10:23 10° NNE
CZ-4C R/B 2.5 20:06:21 10° S 20:10:55 35° ESE 20:12:17 31° E
FENGYUN 3A 3.7 20:07:31 10° SSE 20:12:54 83° WSW 20:18:20 10° NNW
Cosmos 1703 4.0 20:13:49 10° NNW 20:17:40 55° W 20:21:29 10° S
Cosmos 1400 Rocket 4.5 20:23:12 10° NNW 20:26:54 35° W 20:30:32 10° SSW
Tiangong 1 2.7 20:27:51 10° W 20:29:46 25° SW 20:29:46 25° SW
ASTRO E2 3.2 20:26:36 10° WSW 20:30:26 45° S 20:30:31 45° S
Cosmos 2219 Rocket 3.5 20:26:08 10° N 20:29:16 22° NE 20:29:16 22° NE
Thor Agena Rocket 4.0 20:28:19 10° N 20:33:21 60° WNW 20:38:18 10° SSW
Cosmos 1048 Rocket 3.8 20:28:39 10° SSW 20:33:48 81° ESE 20:38:42 11° NNE
Iridium 4 Rocket 3.9 20:33:53 10° S 20:39:10 69° W 20:44:53 10° N
SL-16 R/B 4.3 20:35:01 10° NW 20:39:35 26° WSW 20:44:09 10° SSW
Cosmos 2333 4.5 20:35:34 10° N 20:40:47 47° NE 20:40:47 47° NE
Cosmos 2237 4.1 20:35:32 10° NNW 20:41:17 76° ENE 20:42:59 47° SE
Cosmos 1420 Rocket 3.9 20:37:31 10° NNW 20:42:52 85° ENE 20:44:27 47° SSE
Envisat 4.5 20:46:16 23° NNE 20:46:16 23° NNE 20:48:24 10° N
H-2A R/B 3.3 20:43:01 38° SSW 20:44:14 58° W 20:48:04 10° NNW
Resurs 01 Rocket 3.8 20:49:59 16° N 20:49:59 16° N 20:50:54 10° N
Cosmos 44 3.0 20:43:48 10° SSW 20:47:53 74° WSW 20:47:53 74° WSW
Delta 2 Rocket 4.3 20:45:30 10° W 20:47:45 36° W 20:47:45 36° W
Cosmos 2221 4.2 20:52:27 10° SW 20:56:20 33° WNW 21:00:16 10° NNW
Cosmos 44 Rocket 3.4 20:54:06 10° SW 20:58:42 67° WNW 20:58:42 67° WNW
Cosmos 2237 Rocket 4.2 20:54:20 10° N 20:55:40 15° NNE 20:55:40 15° NNE
COSMOS 2428 3.0 21:11:36 10° NNW 21:16:20 62° NW 21:16:20 62° NW
Cosmos 2333 Rocket 3.6 21:15:22 10° NNW 21:18:02 27° N 21:18:02 27° N
Cosmos 2360 Rocket 4.0 21:19:10 10° NW 21:23:54 28° WSW 21:28:04 12° SSW
MOS 1-B Rocket 4.2 21:25:31 61° WNW 21:25:31 61° WNW 21:30:40 10° NNW
Cosmos 2219 4.1 21:20:11 10° SW 21:25:41 47° WNW 21:27:40 34° NNW
USA 267 4.3 21:37:01 30° N 21:39:09 38° NW 21:45:04 10° W
Atlas Centaur 2 3.9 21:44:21 10° W 21:47:12 28° WSW 21:47:12 28° WSW
CZ-4C R/B 4.1 21:54:53 10° WSW 21:57:35 24° W 21:57:35 24° W
